| time (UTC) | temp C | wind direction | speed KPH | gust KPH | rain 1hr cm | rain 24hr cm | rain mn cm | humidity % | barometer mb |
| 20260506013021 | 5 | 207 | 0.0 | 6.4 | 0.00 | 0.00 | 0.00 | 83 | 1006.9 |
| 20260506011523 | 6 | 171 | 0.0 | 0.0 | 0.00 | 0.00 | 0.00 | 82 | 1006.7 |
| 20260506010024 | 6 | 170 | 0.0 | 0.0 | 0.00 | 0.00 | 0.00 | 82 | 1006.1 |
| 20260506004524 | 5 | 143 | 0.0 | 0.0 | 0.00 | 0.00 | 0.00 | 81 | 1005.8 |
| 20260506003020 | 5 | 103 | 0.0 | 0.0 | 0.00 | 0.00 | 0.00 | 81 | 1005.6 |
| 20260506001518 | 5 | 326 | 0.0 | 0.0 | 0.00 | 0.00 | 0.00 | 81 | 1005.5 |
| 20260506000023 | 6 | 321 | 0.0 | 1.6 | 0.00 | 0.00 | 0.00 | 77 | 1005.2 |
| 20260505234516 | 6 | 148 | 0.0 | 0.0 | 0.00 | 0.00 | 0.00 | 77 | 1005.6 |
| 20260505233013 | 7 | 166 | 0.0 | 9.7 | 0.00 | 0.00 | 0.00 | 68 | 1005.6 |
| 20260505231514 | 8 | 95 | 0.0 | 3.2 | 0.00 | 0.00 | 0.00 | 64 | 1004.5 |
| 20260505230024 | 9 | 110 | 0.0 | 4.8 | 0.00 | 0.00 | 0.00 | 60 | 1004.5 |
| 20260505224512 | 8 | 41 | 0.0 | 0.0 | 0.00 | 0.00 | 0.00 | 65 | 1004.6 |
| 20260505223012 | 8 | 353 | 0.0 | 6.4 | 0.00 | 0.00 | 0.00 | 66 | 1004.8 |
| 20260505221510 | 9 | 18 | 4.8 | 12.9 | 0.00 | 0.00 | 0.00 | 59 | 1004.9 |
| 20260505220009 | 11 | 71 | 0.0 | 3.2 | 0.00 | 0.00 | 0.00 | 49 | 1004.6 |
| 20260505214508 | 11 | 143 | 0.0 | 1.6 | 0.00 | 0.00 | 0.00 | 49 | 1004.4 |
| 20260505213009 | 11 | 60 | 0.0 | 3.2 | 0.00 | 0.00 | 0.00 | 49 | 1004.5 |
| 20260505211508 | 11 | 122 | 0.0 | 4.8 | 0.00 | 0.00 | 0.00 | 51 | 1004.7 |
| 20260505210004 | 11 | 329 | 0.0 | 3.2 | 0.00 | 0.00 | 0.00 | 53 | 1004.8 |
| 20260505204502 | 11 | 349 | 0.0 | 9.7 | 0.00 | 0.00 | 0.00 | 51 | 1005.1 |
| 20260505203059 | 10 | 344 | 0.0 | 1.6 | 0.00 | 0.00 | 0.00 | 53 | 1005.5 |
| 20260505201559 | 10 | 24 | 0.0 | 1.6 | 0.00 | 0.00 | 0.00 | 55 | 1005.8 |
| 20260505200059 | 9 | 15 | 0.0 | 6.4 | 0.00 | 0.00 | 0.00 | 57 | 1006.0 |
| 20260505194558 | 10 | 201 | 1.6 | 4.8 | 0.00 | 0.00 | 0.00 | 54 | 1006.1 |
| 20260505193057 | 10 | 200 | 1.6 | 9.7 | 0.00 | 0.00 | 0.00 | 57 | 1005.9 |
| 20260505191604 | 9 | 106 | 0.0 | 9.7 | 0.00 | 0.00 | 0.00 | 53 | 1006.0 |
| 20260505190111 | 10 | 288 | 0.0 | 3.2 | 0.00 | 0.00 | 0.00 | 52 | 1006.1 |
| 20260505184555 | 8 | 165 | 1.6 | 6.4 | 0.00 | 0.00 | 0.00 | 54 | 1006.2 |
| 20260505183055 | 9 | 45 | 0.0 | 9.7 | 0.00 | 0.00 | 0.00 | 49 | 1006.2 |
| 20260505181636 | 9 | 178 | 0.0 | 11.3 | 0.00 | 0.00 | 0.00 | 47 | 1005.8 |
| 20260505180103 | 9 | 155 | 0.0 | 12.9 | 0.00 | 0.00 | 0.00 | 48 | 1005.7 |
| 20260505174553 | 10 | 195 | 0.0 | 3.2 | 0.00 | 0.00 | 0.00 | 43 | 1005.8 |
| 20260505173052 | 10 | 178 | 0.0 | 0.0 | 0.00 | 0.00 | 0.00 | 45 | 1005.2 |
| 20260505171559 | 10 | 131 | 0.0 | 0.0 | 0.00 | 0.00 | 0.00 | 44 | 1005.3 |
| 20260505170052 | 10 | 100 | 0.0 | 3.2 | 0.00 | 0.00 | 0.00 | 43 | 1005.3 |
| 20260505164549 | 9 | 213 | 0.0 | 1.6 | 0.00 | 0.00 | 0.00 | 47 | 1005.3 |
| 20260505163047 | 8 | 312 | 3.2 | 6.4 | 0.00 | 0.00 | 0.00 | 49 | 1005.9 |
| 20260505161547 | 8 | 75 | 0.0 | 3.2 | 0.00 | 0.00 | 0.00 | 53 | 1006.1 |
| 20260505160141 | 7 | 165 | 0.0 | 3.2 | 0.00 | 0.00 | 0.00 | 55 | 1006.4 |
| 20260505153045 | 7 | 86 | 0.0 | 3.2 | 0.00 | 0.00 | 0.00 | 63 | 1007.0 |
| 20260505151541 | 7 | 161 | 0.0 | 3.2 | 0.00 | 0.00 | 0.00 | 61 | 1006.8 |
| 20260505124524 | -17 | 0.0 | 0.0 | 0.00 | 0.00 | 0.00 | 1006.7 | ||
| 20260505123022 | -17 | 0.0 | 0.0 | 0.00 | 0.00 | 0.00 | 1006.8 | ||
| 20260505121516 | 3 | 334 | 0.0 | 0.0 | 0.00 | 0.00 | 0.00 | 68 | 1007.4 |
| 20260505120014 | 3 | 334 | 0.0 | 0.0 | 0.00 | 0.00 | 0.00 | 68 | 1007.1 |
| 20260505114512 | 3 | 334 | 0.0 | 0.0 | 0.00 | 0.00 | 0.00 | 67 | 1007.1 |
| 20260505113012 | 3 | 334 | 0.0 | 0.0 | 0.00 | 0.00 | 0.00 | 66 | 1007.1 |
| 20260505111508 | 5 | 334 | 0.0 | 0.0 | 0.00 | 0.00 | 0.00 | 62 | 1007.0 |
| 20260505101602 | 6 | 119 | 0.0 | 0.0 | 0.00 | 0.00 | 0.00 | 55 | 1007.2 |
| 20260505100054 | 7 | 134 | 0.0 | 0.0 | 0.00 | 0.00 | 0.00 | 55 | 1007.1 |
| 20260505094551 | 7 | 110 | 0.0 | 1.6 | 0.00 | 0.00 | 0.00 | 53 | 1007.3 |
| 20260505093050 | 7 | 150 | 0.0 | 1.6 | 0.00 | 0.00 | 0.00 | 53 | 1006.9 |
| 20260505091554 | 7 | 126 | 0.0 | 0.0 | 0.00 | 0.00 | 0.00 | 52 | 1007.1 |
| 20260505090045 | 8 | 172 | 0.0 | 8.0 | 0.00 | 0.00 | 0.00 | 51 | 1007.4 |
| 20260505084551 | 8 | 141 | 0.0 | 4.8 | 0.00 | 0.00 | 0.00 | 50 | 1008.0 |
| 20260505083054 | 8 | 73 | 0.0 | 6.4 | 0.00 | 0.00 | 0.00 | 50 | 1008.6 |
| 20260505081539 | 8 | 70 | 0.0 | 1.6 | 0.00 | 0.00 | 0.00 | 49 | 1008.6 |
| 20260505080038 | 8 | 160 | 0.0 | 0.0 | 0.00 | 0.00 | 0.00 | 49 | 1009.2 |
| 20260505074537 | 7 | 340 | 0.0 | 0.0 | 0.00 | 0.00 | 0.00 | 49 | 1009.4 |
| 20260505073037 | 8 | 158 | 0.0 | 6.4 | 0.00 | 0.00 | 0.00 | 45 | 1009.6 |
| 20260505071534 | 8 | 155 | 0.0 | 8.0 | 0.00 | 0.00 | 0.00 | 44 | 1009.4 |
| 20260505070034 | 9 | 126 | 1.6 | 4.8 | 0.00 | 0.00 | 0.00 | 43 | 1009.3 |
| 20260505064541 | 9 | 136 | 0.0 | 6.4 | 0.00 | 0.00 | 0.00 | 41 | 1009.1 |
| 20260505063032 | 9 | 169 | 0.0 | 6.4 | 0.00 | 0.00 | 0.00 | 41 | 1008.8 |
| 20260505061529 | 9 | 88 | 0.0 | 8.0 | 0.00 | 0.00 | 0.00 | 41 | 1009.2 |
| 20260505060025 | 7 | 170 | 0.0 | 3.2 | 0.00 | 0.00 | 0.00 | 48 | 1009.3 |
| 20260505054542 | 7 | 73 | 0.0 | 0.0 | 0.00 | 0.00 | 0.00 | 50 | 1009.2 |
| 20260505053025 | 8 | 135 | 0.0 | 0.0 | 0.00 | 0.00 | 0.00 | 48 | 1009.2 |
| 20260505051524 | 10 | 327 | 0.0 | 0.0 | 0.00 | 0.00 | 0.00 | 38 | 1009.0 |
| 20260505041521 | 10 | 131 | 0.0 | 0.0 | 0.00 | 0.00 | 0.00 | 45 | 1008.7 |
| 20260505040021 | 10 | 150 | 0.0 | 0.0 | 0.00 | 0.00 | 0.00 | 45 | 1008.7 |
| 20260505034526 | 10 | 162 | 0.0 | 0.0 | 0.00 | 0.00 | 0.00 | 43 | 1008.6 |
| 20260505033020 | 10 | 165 | 0.0 | 0.0 | 0.00 | 0.00 | 0.00 | 42 | 1008.5 |
| 20260505031519 | 11 | 152 | 0.0 | 0.0 | 0.00 | 0.00 | 0.00 | 42 | 1008.4 |
| 20260505030036 | 11 | 147 | 0.0 | 0.0 | 0.00 | 0.00 | 0.00 | 40 | 1008.4 |
| 20260505024518 | 11 | 177 | 0.0 | 0.0 | 0.00 | 0.00 | 0.00 | 38 | 1008.2 |
| 20260505023017 | 12 | 148 | 0.0 | 0.0 | 0.00 | 0.00 | 0.00 | 36 | 1008.2 |
| 20260505021520 | 12 | 143 | 0.0 | 0.0 | 0.00 | 0.00 | 0.00 | 36 | 1008.1 |
| 20260505020018 | 12 | 151 | 0.0 | 4.8 | 0.00 | 0.00 | 0.00 | 33 | 1008.2 |
| 20260505014519 | 13 | 160 | 0.0 | 1.6 | 0.00 | 0.00 | 0.00 | 31 | 1008.2 |